Zurück zum Katalog

BRO-16

AktivWissenschaftSSO
NORAD 62654·PAYLOAD·🇫🇷 France

Gestartet Jan 14, 2025 von Vandenberg Space Force Base

Loading…

Nächste Überflüge (nächste 24 Stunden)

TLE

AktuellSource: Space-Track

Epoche: Sep 14, 2026, 22:51 UTC

1 62654U 25009AX  26257.95231441  .00003298  00000-0  13707-3 0  9993
2 62654  97.4002 337.3369 0002075  36.2704 323.8674 15.24504242 92471

Verfolge BRO-16 in Echtzeit mit AllMySat

Download on the App Store